Vertical_Velocity
4 2 -1 4 1 2 -1 -9 2 4 -0 0 -1 -0 -1 -0 1 -1 -0 -1 0 -1 -0 0 1 -1 0 -0 -4 -0 1 -0 0 -8 2 1 2 -3 0 9 -8 -2 6 -26
2 5 8 5 -2 -1 1 -9 -0 -3 -1 1 0 1 0 -0 1 -1 1 0 -0 0 -1 1 1 -0 1 -1 -1 -4 -2 0 -0 2 7 3 1 -1 -0 1 3 -8 16 -23
5 3 9 -8 3 6 10 -8 1 1 2 -2 -1 -1 -0 1 -0 1 -0 -1 -1 1 2 0 -0 1 1 1 -0 1 2 1 0 -3 -7 8 3 1 -0 3 9 -9 -10 -10
7 1 -1 6 -8 -17 3 -6 -0 -0 -0 1 0 0 -1 0 1 1 0 3 -0 -3 1 1 -1 0 -0 2 -3 -1 9 4 9 -6 -2 5 1 0 -2 4 -9 15 -20 2
19 5 1 11 8 -5 1 -17 -3 0 0 -1 -0 1 -2 -1 1 -4 -0 3 -1 -0 -1 -4 -2 3 2 -2 -5 2 -1 -10 5 -8 -3 4 2 -2 0 -0 -3 1 3 -9
12 14 7 9 3 17 -5 0 -0 2 1 1 -0 -2 -1 -3 -0 1 0 -2 0 2 -5 1 -1 -1 -2 -2 1 -1 9 6 5 -16 1 1 -2 -3 0 -1 -0 3 4 1
11 5 -1 -1 9 4 -12 0 -1 -8 0 -0 -2 -0 -1 -0 -1 -1 1 -1 -0 1 -2 -2 0 1 1 4 -5 4 2 5 6 -6 4 11 2 1 2 2 1 -0 -0 0
7 -0 2 5 -1 -2 -7 -5 -11 -4 1 -1 3 0 0 0 -0 -1 0 2 0 -2 -3 1 -1 1 4 -0 0 -0 3 3 -1 8 2 -5 5 0 0 3 2 1 1 -1
3 4 4 -7 -2 4 -3 -7 -4 -7 -7 4 1 -0 0 -0 0 2 2 0 -1 0 1 2 0 -1 2 -2 0 -0 -1 -0 8 2 8 2 7 0 0 1 2 0 1 0
-4 -1 1 -0 -1 -6 -1 -8 -6 -1 -8 2 1 1 1 -1 -1 0 -0 -1 1 -3 0 2 1 -2 0 2 0 -1 -1 -1 1 -2 -0 5 2 -0 1 11 13 -0 1 2
3 -2 -4 -3 -4 -4 -4 -4 5 -1 -7 3 4 -0 1 -0 -2 1 1 3 2 1 3 2 -1 2 1 2 1 0 2 2 0 2 2 3 -1 2 7 8 -2 1 -1 1
-3 -6 -10 24 5 -4 -1 -4 4 -0 -16 -4 8 1 -0 1 0 -2 -2 1 -1 3 2 2 2 1 1 1 0 2 4 4 4 3 5 0 0 -0 -0 -0 1 -1 1 -1
-16 -0 11 -4 -4 -3 -1 -5 -1 -2 -13 5 1 -0 5 4 -4 -2 2 -0 -1 0 -0 1 0 1 2 1 2 0 2 -1 1 3 2 -1 -1 1 1 -1 0 -1 0 -0
-6 8 16 -3 0 -7 -2 -6 2 0 -6 -9 6 5 -5 -1 -2 -1 -1 -1 0 1 0 0 -0 -0 1 1 3 2 2 1 1 -3 -0 -5 -2 1 0 -3 -0 -0 -0 2
22 4 0 -2 -4 -0 -0 0 -2 2 2 -4 -1 5 0 -0 -1 -3 -2 -0 -0 -0 -1 -2 1 0 -1 0 0 0 -1 -0 2 -0 0 1 -7 -3 1 -3 -2 -1 1 -8
5 -7 -2 -1 -1 3 -3 -16 2 -0 -3 -14 -1 0 1 4 2 -2 -4 -1 -1 -2 -2 1 0 -0 -0 0 0 -2 -1 -1 2 -6 1 2 -2 -5 1 -0 -3 -0 1 1
-4 0 0 -3 -0 -0 -9 2 2 -2 -2 -8 3 1 -3 -1 -2 -1 1 -1 -4 -2 -1 -2 -1 -2 -2 0 0 -2 -1 -1 -2 4 4 -4 1 -7 -2 2 -1 -0 -4 -1
-3 -2 -4 -4 -1 -9 -13 -5 2 4 -9 -6 -3 -1 -1 -8 0 -0 -1 -0 -2 -4 -0 -1 -1 -0 -1 0 -4 -3 -2 -2 -4 -0 1 -1 1 -4 -5 2 -0 -2 -4 -2
-7 -7 -4 -2 -15 -12 1 6 5 -2 -12 -8 -4 2 1 -5 3 0 -1 -2 -2 0 -1 0 4 -0 -1 -4 -3 -2 -1 1 -3 -2 -2 -2 1 -3 -3 -0 -4 1 -4 -1
-2 -1 -2 -6 -4 -1 -2 -3 -5 -14 -6 -6 -3 3 1 -1 -3 -2 1 -1 0 -0 3 0 -0 -2 -5 -6 -5 -3 -3 -1 4 -1 -10 -2 -4 1 -3 -2 -1 0 -3 -4
0 -6 -5 1 -1 -2 -4 -5 -8 -1 -4 -2 1 -0 2 -1 1 2 -1 1 0 -0 3 5 -0 -2 -6 -2 -2 1 1 1 -1 2 -1 1 2 -2 -1 -5 1 1 -0 -1
-6 -19 -5 -2 -4 -3 -15 0 -4 -5 3 -1 -0 0 -1 -1 0 1 -1 1 -1 1 -0 2 -0 -6 -4 -1 -5 -4 2 1 -2 6 -0 -0 0 2 1 -1 -3 -1 0 -1
-4 -3 -6 -7 -1 -17 -7 -1 -1 -1 -1 1 -4 -4 -1 -1 1 -0 -0 -1 1 -1 1 -1 -4 -4 -2 0 -2 -7 3 2 0 -4 2 1 -3 0 4 -4 -1 2 -2 -2
-13 -6 -7 -5 -3 1 -0 -0 -0 -1 -0 -0 -0 -0 1 -0 -1 -0 1 2 2 -0 0 -4 -3 -1 -3 -2 1 1 -6 1 -0 -1 0 -1 2 -3 -0 3 3 2 -4 -2
-10 -6 -0 -1 1 -1 -0 1 -0 0 -1 -0 1 1 -0 -1 -0 -0 0 -2 -1 -0 -4 -2 -1 -4 -1 -3 -0 0 -1 -1 -3 0 -1 -2 0 -0 -6 3 1 2 -1 -1
-5 -6 -4 -1 -1 -1 -1 -0 -0 1 1 0 0 -0 -1 1 1 -0 0 0 -2 -5 -2 -3 -1 -5 -2 -1 1 1 2 1 -1 -0 1 -0 1 2 -2 -3 1 -0 3 -1
-6 -3 -0 -1 -1 -0 1 1 2 2 0 0 -0 -3 2 -0 -0 -0 -1 -3 -3 -2 -14 -4 2 1 -4 1 -0 -0 1 -0 1 1 1 -0 3 4 2 -2 -1 4 3 1
Height
1526 1528 1529 1531 1533 1534 1536 1540 1542 1536 1538 1544 1543 1540 1540 1541 1542 1544 1544 1546 1545 1546 1550 1552 1552 1549 1550 1556 1559 1561 1567 1565 1555 1551 1566 1569 1565 1554 1553 1551 1544 1544 1543 1526
1519 1520 1521 1523 1525 1528 1529 1534 1536 1535 1536 1535 1536 1540 1540 1541 1542 1542 1544 1544 1546 1549 1550 1552 1549 1551 1553 1555 1557 1560 1565 1563 1555 1538 1564 1566 1562 1556 1556 1554 1552 1541 1536 1519
1510 1512 1513 1516 1517 1521 1526 1529 1533 1532 1532 1532 1531 1534 1535 1537 1539 1541 1542 1544 1546 1548 1548 1549 1548 1550 1552 1554 1555 1557 1559 1556 1553 1538 1533 1542 1552 1550 1556 1549 1537 1528 1522 1521
1500 1502 1502 1504 1506 1514 1519 1523 1525 1525 1530 1530 1531 1532 1534 1535 1537 1539 1540 1542 1542 1544 1546 1548 1547 1549 1550 1553 1554 1554 1554 1547 1547 1536 1538 1539 1536 1537 1536 1543 1530 1526 1515 1516
1489 1491 1495 1496 1498 1501 1510 1516 1523 1525 1527 1530 1531 1532 1534 1534 1535 1537 1537 1538 1538 1543 1545 1544 1544 1546 1548 1548 1549 1550 1548 1540 1540 1528 1533 1530 1522 1523 1523 1521 1522 1520 1517 1514
1484 1487 1491 1493 1493 1498 1501 1509 1516 1518 1527 1528 1532 1530 1530 1532 1534 1537 1537 1537 1540 1542 1543 1545 1546 1547 1547 1545 1546 1545 1544 1541 1539 1523 1526 1523 1522 1519 1524 1523 1530 1534 1518 1524
1480 1482 1486 1492 1492 1494 1499 1504 1511 1517 1521 1524 1526 1530 1531 1532 1534 1535 1538 1539 1541 1545 1544 1544 1543 1542 1540 1540 1539 1542 1540 1540 1535 1525 1525 1522 1520 1536 1534 1532 1540 1539 1535 1537
1472 1479 1485 1487 1492 1493 1497 1504 1508 1516 1518 1521 1525 1529 1532 1533 1535 1538 1538 1540 1540 1542 1544 1542 1538 1532 1534 1532 1536 1537 1537 1535 1529 1524 1514 1509 1533 1541 1543 1543 1534 1540 1538 1538
1469 1478 1484 1489 1491 1494 1498 1503 1509 1513 1517 1526 1526 1529 1533 1533 1535 1538 1539 1539 1540 1541 1541 1539 1540 1531 1532 1533 1532 1538 1538 1537 1531 1522 1519 1515 1539 1545 1546 1546 1530 1541 1540 1538
1470 1477 1485 1489 1492 1495 1500 1503 1509 1511 1518 1526 1528 1529 1534 1536 1538 1538 1540 1540 1540 1540 1538 1536 1533 1530 1539 1533 1535 1540 1535 1539 1534 1522 1517 1529 1547 1546 1544 1539 1537 1542 1540 1538
1475 1480 1487 1488 1492 1497 1500 1504 1506 1509 1518 1531 1530 1531 1533 1536 1539 1539 1543 1542 1541 1541 1539 1536 1532 1533 1538 1540 1552 1551 1546 1542 1532 1541 1536 1525 1547 1544 1542 1547 1543 1542 1539 1538
1478 1483 1486 1490 1493 1498 1502 1503 1506 1509 1513 1533 1535 1534 1537 1538 1540 1543 1543 1544 1543 1542 1540 1541 1539 1536 1542 1545 1530 1556 1547 1554 1549 1551 1540 1549 1548 1548 1547 1546 1544 1541 1539 1536
1481 1484 1489 1493 1496 1499 1503 1504 1507 1510 1521 1533 1536 1539 1541 1541 1541 1543 1545 1543 1543 1543 1542 1543 1543 1543 1548 1537 1541 1551 1557 1559 1556 1553 1548 1548 1547 1547 1546 1544 1542 1539 1536 1533
1484 1489 1491 1493 1497 1500 1504 1505 1509 1511 1518 1531 1543 1542 1543 1544 1544 1543 1542 1542 1542 1542 1543 1544 1545 1545 1551 1550 1553 1552 1558 1559 1557 1551 1548 1546 1544 1545 1543 1540 1538 1535 1532 1529
1486 1490 1494 1497 1500 1503 1505 1508 1511 1514 1516 1529 1543 1545 1547 1547 1546 1544 1542 1541 1541 1542 1544 1546 1550 1553 1554 1557 1557 1557 1559 1558 1555 1546 1550 1549 1544 1542 1539 1536 1533 1530 1526 1522
1489 1493 1497 1500 1503 1506 1507 1511 1516 1516 1519 1526 1542 1550 1549 1548 1548 1546 1544 1542 1541 1542 1547 1552 1554 1555 1557 1556 1555 1559 1557 1556 1554 1550 1547 1544 1540 1537 1534 1531 1527 1524 1520 1517
1495 1498 1501 1504 1506 1508 1509 1518 1521 1521 1523 1528 1543 1549 1550 1549 1549 1548 1546 1544 1544 1545 1551 1555 1557 1557 1558 1558 1555 1556 1554 1552 1549 1546 1542 1538 1536 1531 1528 1524 1520 1517 1513 1509
1500 1502 1505 1507 1508 1511 1516 1521 1524 1524 1524 1531 1546 1554 1554 1553 1552 1550 1549 1548 1549 1552 1556 1559 1559 1559 1558 1557 1555 1553 1551 1547 1543 1541 1538 1534 1529 1525 1521 1518 1513 1509 1504 1501
1505 1508 1510 1513 1514 1518 1524 1526 1527 1527 1531 1543 1558 1564 1559 1557 1556 1555 1553 1553 1555 1558 1559 1560 1560 1559 1557 1554 1552 1549 1546 1544 1539 1535 1531 1526 1522 1517 1513 1510 1506 1502 1496 1493
1509 1512 1513 1520 1525 1526 1528 1531 1531 1534 1544 1554 1567 1568 1565 1566 1561 1559 1558 1557 1559 1559 1564 1562 1560 1556 1553 1550 1548 1545 1541 1537 1534 1528 1522 1519 1515 1511 1506 1502 1498 1494 1489 1485
1511 1514 1521 1527 1528 1529 1531 1538 1546 1555 1563 1570 1572 1572 1572 1569 1568 1565 1565 1563 1563 1560 1564 1563 1559 1553 1547 1545 1543 1539 1535 1530 1525 1521 1516 1512 1506 1501 1497 1493 1490 1486 1482 1477
1514 1518 1524 1528 1531 1534 1543 1564 1567 1571 1578 1578 1576 1576 1574 1572 1569 1568 1567 1565 1566 1561 1568 1564 1553 1544 1541 1539 1536 1531 1526 1521 1517 1513 1508 1503 1498 1494 1489 1484 1480 1476 1473 1468
1518 1520 1527 1538 1549 1559 1572 1582 1580 1580 1582 1581 1579 1577 1575 1572 1571 1570 1570 1564 1566 1570 1565 1553 1545 1538 1536 1533 1527 1521 1517 1512 1507 1503 1499 1494 1488 1484 1480 1474 1470 1467 1463 1458
1522 1535 1554 1564 1577 1583 1586 1587 1586 1585 1582 1581 1579 1577 1576 1574 1573 1573 1568 1573 1573 1562 1560 1546 1539 1535 1531 1525 1520 1514 1507 1503 1499 1493 1488 1483 1478 1473 1469 1465 1460 1456 1452 1448
1538 1550 1577 1584 1587 1587 1586 1586 1584 1584 1582 1580 1578 1577 1577 1575 1574 1575 1573 1568 1562 1562 1548 1541 1536 1531 1525 1518 1513 1507 1500 1495 1489 1484 1478 1473 1468 1463 1457 1454 1450 1446 1442 1438
1555 1572 1584 1588 1588 1588 1587 1585 1584 1582 1580 1579 1578 1577 1576 1579 1581 1574 1576 1576 1564 1551 1547 1539 1533 1525 1518 1512 1506 1500 1494 1488 1481 1475 1470 1464 1459 1454 1448 1443 1439 1435 1432 1428
1576 1589 1589 1590 1590 1589 1587 1585 1583 1581 1580 1579 1578 1577 1582 1583 1577 1574 1578 1569 1556 1550 1540 1534 1527 1520 1512 1505 1499 1493 1487 1480 1474 1468 1462 1456 1451 1445 1440 1434 1429 1426 1422 1418